STARLINK-4150

operational
NORAD ID: 53134 Int'l Des: 2022-083 Owner: SPXS Country: US Constellation: starlink
LEOCIRCULAR

Über STARLINK-4150

Beschreibung wird geladen...

Live-Position

3D-Globus wird geladen...

Nächste Überflüge

Höhenverlauf

Altitude vs Time

uPlot chart will show altitude changes over time

Zweizeiliger Elementsatz

1 53134U 22083C 25251.77943391 -.00000082 00000-0 12955-4 0 9996
2 53134 53.2171 270.7502 0001337 88.6435 271.4710 15.08841668173750
Epoch: 8. Sept. 2025 • Age: 16 hours

Aktueller Status

Höhe 557.7 km
Geschwindigkeit 7.58 km/s
Subsatellitenpunkt -49.53°S, 64.16°E
Startdatum 17. Juli 2022
Alter 3.1 years
Typ internet

Technische Details

Klassifizierung Payload
Masse 297.00 kg
Trockenmasse 275.00 kg
Gesamtmasse 297.00 kg
Länge 0.20 m
Durchmesser 2.80 m
Spannweite 9.00 m
Form Box + pan
Hersteller SPXS
Bus-Typ Starlink
Phasenstatus In Orbit
Besitzer/Staat SPXS/US

Große Konstellationen

Loading constellations...